Theta_e
297 297 296 295 295 295 296 297 298 298 298 298 299 299 298 297 297 296 294 293 293 293 292 292 292 293 292 292 292 291 291 291 291 291 291 290 290 290 289 289 288 286 285 284 284 283 283 282 280 279 279 279 278 278 279 278 278 278 278 279 279 278 278 277 277 276 277 278 279 279 278 278 277 277 275 276 276 278 281 277 277 277 277 277 277
297 296 295 295 294 294 294 294 295 295 295 296 298 298 297 295 295 292 291 291 291 292 292 291 292 291 291 291 291 291 291 291 290 290 290 289 288 289 288 288 287 285 284 283 282 283 282 281 280 279 278 279 278 278 278 278 278 278 278 278 278 277 276 275 276 277 276 276 277 277 277 278 276 275 275 275 276 277 277 278 279 278 277 277 276
297 296 295 294 294 293 292 291 292 291 292 293 294 295 295 295 293 292 291 289 289 290 290 290 291 290 290 290 290 290 290 290 289 289 289 289 288 287 287 287 286 284 283 282 282 281 281 280 279 278 278 277 277 277 277 278 278 278 277 277 277 276 276 277 277 276 276 276 276 276 276 276 275 275 277 277 277 277 277 277 278 278 278 277 276
295 294 294 293 291 290 290 290 290 291 291 291 291 291 293 293 292 292 290 289 289 289 289 289 289 289 289 289 289 289 289 288 288 289 289 289 288 287 286 286 286 284 284 282 281 280 280 279 278 278 278 277 277 277 277 278 278 278 277 277 276 276 277 278 278 276 276 275 276 276 277 276 276 276 277 277 277 277 277 277 278 277 277 277 276
294 294 292 291 289 290 290 289 290 290 291 290 290 289 289 290 289 290 289 289 289 288 287 288 288 289 289 288 288 288 288 288 288 288 288 288 288 287 285 285 285 284 283 282 281 280 279 279 278 277 278 277 277 277 277 278 278 278 277 276 276 277 278 278 277 277 277 276 276 277 277 277 277 276 277 276 277 277 277 277 277 277 276 276 277
294 293 291 291 290 289 290 289 290 290 290 290 289 289 289 288 288 288 289 289 288 287 287 287 288 288 288 288 288 288 288 288 288 288 287 287 287 286 285 284 284 283 281 281 280 280 279 278 278 278 278 278 278 278 278 278 278 278 277 277 278 278 278 277 278 277 277 277 277 276 276 276 276 276 277 277 276 275 276 276 276 276 275 275 275
293 292 291 291 291 290 290 290 290 290 290 290 289 288 288 288 288 288 288 288 287 286 286 287 287 288 288 288 288 288 287 287 287 287 286 286 285 284 283 283 282 281 280 280 279 279 279 278 278 278 279 279 278 278 278 278 278 278 278 278 278 278 277 277 277 277 277 276 276 276 276 276 276 275 276 277 277 276 275 275 275 276 275 275 274
293 292 291 291 292 291 291 290 290 290 289 289 288 288 288 287 287 287 287 288 286 286 286 286 287 287 287 287 287 287 287 286 286 286 285 285 284 283 282 281 280 280 279 279 278 278 278 278 279 279 279 279 279 279 279 279 279 278 279 279 278 278 277 277 277 277 276 276 276 275 276 276 275 276 276 276 275 275 276 275 274 274 273 274 274
293 292 292 292 293 292 291 290 289 289 289 288 288 287 287 286 286 286 287 288 287 286 286 286 286 285 286 286 286 286 286 286 286 285 284 283 283 282 281 281 280 279 279 278 278 277 278 278 279 279 280 281 282 282 281 282 280 279 279 279 278 278 278 277 277 277 276 276 276 276 275 275 276 275 275 275 275 275 275 275 274 274 273 273 273
293 292 292 293 293 291 290 289 289 289 288 288 287 287 286 285 285 285 286 287 287 286 286 286 286 285 285 284 285 285 285 285 285 286 286 284 283 282 281 280 280 279 278 278 277 277 277 278 279 281 281 282 282 284 284 284 283 281 280 279 279 278 277 277 277 277 276 276 275 276 275 275 275 276 276 276 276 276 274 273 273 273 271 272 272
293 293 293 294 293 290 290 289 288 288 288 287 287 286 285 285 284 284 284 285 286 286 285 285 285 285 284 284 283 284 284 285 286 288 288 287 283 282 281 280 279 279 278 278 277 277 278 279 279 281 282 282 282 284 285 284 284 283 283 282 281 279 278 277 277 277 276 275 276 276 276 275 276 277 276 276 276 275 275 274 273 272 272 270 271
293 293 293 293 291 290 290 288 288 288 287 287 286 285 284 284 284 284 284 284 285 285 284 284 284 284 283 283 283 283 283 285 288 288 289 288 286 282 281 280 279 279 279 278 278 278 278 278 280 280 281 281 282 283 284 284 284 284 283 283 283 283 282 279 277 277 277 276 275 276 276 276 277 277 276 275 275 274 274 274 273 273 272 271 270
293 293 293 292 291 290 288 288 287 287 287 286 285 284 283 283 283 283 283 284 285 284 285 284 284 284 283 282 282 282 282 286 288 288 288 288 287 283 281 280 280 279 279 279 278 278 278 278 279 280 281 282 282 282 282 282 283 284 283 283 283 284 284 284 283 279 279 277 276 276 277 277 276 276 277 276 277 275 274 273 273 272 272 272 272
292 292 291 290 290 288 288 287 287 287 286 285 284 283 283 283 283 283 283 283 284 284 284 284 284 283 283 283 282 282 282 285 288 288 288 288 287 285 281 280 280 279 279 279 278 278 278 279 279 279 280 281 281 281 281 281 281 281 281 281 280 282 283 284 284 283 281 278 277 276 278 278 277 277 277 279 276 274 274 273 273 272 271 272 272
291 291 291 289 288 288 288 287 287 286 285 284 284 283 283 282 282 282 283 283 283 283 284 284 284 284 283 283 283 282 282 285 288 288 288 288 288 285 281 280 280 279 279 279 279 279 279 280 280 279 279 280 280 281 280 280 280 280 280 279 279 280 281 281 281 281 280 279 278 278 278 278 278 277 276 278 277 276 276 275 274 273 271 268 267
290 289 290 289 288 288 287 287 287 285 284 284 283 283 282 282 282 282 282 281 282 283 284 284 284 283 283 283 282 282 282 286 287 288 288 289 287 282 280 279 279 279 278 279 279 280 280 280 280 280 279 279 281 283 281 280 279 278 278 278 278 278 279 281 282 283 281 280 279 278 278 278 279 277 278 277 276 275 273 269 268 267 267 267 269
289 290 289 289 288 288 287 287 286 284 284 283 283 282 282 281 281 281 281 281 281 282 283 283 284 283 283 282 282 282 281 285 287 288 289 289 286 281 280 279 279 278 278 279 279 280 280 281 281 280 280 279 282 284 283 281 278 278 277 277 277 277 277 279 282 283 284 284 284 283 283 283 283 283 282 283 280 276 272 270 271 268 267 268 269
289 289 289 288 288 287 287 286 285 284 283 283 283 282 282 281 281 281 282 281 281 282 283 283 283 283 283 282 282 282 281 283 286 288 288 288 285 280 280 279 278 278 278 279 280 280 281 282 281 280 280 280 283 285 284 281 278 277 277 276 275 275 276 278 279 280 283 284 284 284 284 284 284 284 284 284 284 281 274 272 271 269 269 268 268
288 288 288 287 286 286 286 285 285 284 283 283 282 282 281 281 281 280 281 281 281 282 283 283 282 283 283 282 283 282 281 282 286 287 288 288 284 281 280 279 278 278 278 278 280 280 280 281 281 281 281 281 285 285 285 281 278 277 277 276 275 275 276 278 278 278 278 279 280 281 282 283 283 282 282 284 284 283 276 276 272 270 269 268 267
287 286 285 285 285 285 285 285 284 284 283 282 282 282 281 280 280 280 280 281 281 282 282 282 281 281 282 282 282 282 281 281 285 287 288 288 285 281 280 279 278 278 278 279 278 279 280 280 282 283 284 284 285 286 286 284 279 278 278 277 276 276 279 278 279 279 278 278 278 279 279 279 280 280 280 280 281 282 279 276 274 273 272 272 270
284 284 284 284 284 284 284 284 284 283 283 282 281 280 280 280 279 279 279 280 280 281 281 281 281 280 280 281 281 281 281 281 284 287 288 288 286 283 280 279 279 279 279 279 279 279 279 280 281 284 285 285 286 287 287 285 282 279 279 278 279 281 281 278 279 280 278 277 276 276 276 276 276 276 277 277 278 278 279 279 276 274 273 271 271
282 282 283 283 282 282 282 282 283 282 280 280 279 278 277 279 279 279 279 279 280 280 280 280 280 279 279 279 280 280 280 282 283 286 288 288 286 284 280 280 281 279 279 279 279 279 280 280 280 283 286 285 286 287 287 287 284 280 279 282 283 283 281 279 278 278 277 276 275 275 274 274 274 274 274 274 275 276 276 277 278 276 274 273 272
281 281 281 281 281 281 281 281 281 280 279 280 279 278 277 278 278 278 278 279 279 279 279 279 278 278 278 278 278 279 279 280 283 285 287 288 286 285 283 282 283 281 279 279 279 280 281 281 281 283 285 286 286 287 288 287 286 282 283 284 284 284 283 280 278 277 276 275 275 274 274 274 273 273 273 273 274 275 275 276 276 277 277 277 276
280 280 280 280 279 280 280 280 280 280 280 279 279 278 278 278 278 278 279 279 279 278 278 278 278 277 276 276 277 277 278 279 281 284 285 287 287 286 285 284 284 281 281 280 281 281 281 281 281 283 285 286 286 287 287 287 285 286 286 285 285 284 283 281 279 278 276 276 275 275 275 275 274 274 274 274 274 274 275 275 276 276 276 277 277
281 280 279 279 279 279 279 280 279 279 280 280 279 279 277 277 277 277 278 278 279 278 277 278 277 277 276 276 276 276 277 278 278 282 285 286 287 286 285 284 285 284 281 281 282 282 283 284 283 284 285 286 286 286 286 286 286 286 286 286 285 284 283 282 280 279 277 276 276 276 276 276 276 276 276 276 276 275 274 274 275 275 275 275 275
280 280 279 280 280 279 279 279 279 279 279 280 280 279 278 278 277 277 277 277 278 278 277 277 277 277 276 276 276 276 277 277 277 279 283 284 286 286 285 284 284 284 282 282 283 284 284 284 284 284 284 284 284 284 283 284 285 286 285 285 284 284 283 282 281 280 277 277 277 276 277 277 277 277 277 276 275 273 273 273 272 272 272 272 271
281 280 280 279 279 279 280 279 279 278 278 279 279 279 278 278 277 277 277 277 278 278 277 277 277 277 276 276 276 276 276 276 276 277 279 282 284 285 285 283 283 284 282 283 283 284 284 284 283 284 283 284 284 284 283 283 283 283 284 284 284 284 283 282 281 281 280 279 278 278 278 278 278 277 275 274 274 274 274 273 272 272 271 271 270
282 280 280 280 280 280 280 279 280 279 279 279 279 279 279 279 278 278 278 278 277 277 277 277 277 277 277 277 276 276 275 276 276 276 278 280 282 284 284 283 282 282 282 282 283 283 283 284 284 284 283 283 283 282 282 281 281 281 281 282 282 283 283 283 283 281 281 280 279 279 278 277 275 275 275 274 274 273 273 272 271 271 271 269 267
282 280 280 280 280 280 280 279 280 280 280 280 280 280 279 279 279 279 280 280 279 278 278 278 278 278 278 277 276 275 275 275 276 279 278 281 281 282 283 283 282 281 282 284 283 283 283 282 282 282 282 281 281 281 281 281 281 281 281 281 281 281 281 281 280 280 280 279 278 278 278 277 276 274 273 273 273 272 271 271 271 270 269 268 267
282 281 281 280 280 280 279 279 279 278 278 278 277 276 278 281 280 279 278 280 281 282 282 279 279 279 278 279 279 277 276 277 280 280 280 281 283 284 284 285 284 282 283 285 283 282 281 281 281 281 281 281 280 280 281 281 280 280 280 281 280 280 279 279 279 279 279 278 278 277 277 276 276 274 272 272 272 271 270 271 269 269 267 267 266
282 281 281 280 280 280 279 278 278 278 278 278 277 277 276 279 282 282 281 281 282 282 283 282 282 282 280 278 280 282 281 281 281 281 281 281 282 283 284 285 285 285 284 283 282 280 280 280 280 281 281 281 280 281 281 280 280 280 279 279 280 279 279 278 278 278 278 277 277 276 276 275 275 274 272 271 270 270 268 269 268 267 267 266 266
281 281 280 280 280 279 278 278 278 278 278 278 277 277 277 276 277 282 282 282 282 283 283 283 283 282 282 281 280 280 282 282 282 282 281 282 282 283 284 285 286 286 285 285 281 280 280 279 279 280 280 280 280 280 280 280 279 279 279 278 278 278 278 277 277 276 276 275 275 275 274 274 274 273 272 271 270 269 267 266 266 265 266 266 265
282 281 280 280 280 279 278 278 278 278 277 277 277 277 277 277 276 277 280 283 283 283 283 283 283 283 283 283 282 281 282 282 283 283 282 282 282 282 283 284 285 286 286 283 281 280 280 279 279 279 278 278 278 277 277 277 276 276 276 276 275 275 275 276 276 274 274 274 274 274 274 274 273 272 271 270 269 268 267 266 266 265 265 264 264
282 282 281 280 279 279 279 279 278 278 278 278 277 277 277 277 277 277 277 278 279 281 283 284 283 283 283 283 283 283 283 283 283 284 283 283 283 282 283 282 284 285 284 281 280 279 277 276 276 276 275 274 274 273 273 273 273 273 273 273 273 272 272 272 272 273 272 274 274 274 274 273 272 272 271 270 269 269 267 267 266 264 264 263 263
282 279 278 278 280 279 279 278 278 278 278 278 277 277 277 276 277 277 277 277 277 278 279 281 283 284 283 283 283 283 283 284 284 284 284 284 283 283 283 280 279 280 281 280 278 277 275 274 274 274 272 272 272 272 272 271 271 271 272 271 270 269 269 270 272 272 273 274 274 274 273 273 272 271 270 269 268 267 267 266 265 265 264 263 262
281 281 280 279 280 279 279 278 278 278 278 278 278 278 277 276 276 277 278 278 278 277 276 278 278 283 283 283 284 284 284 284 284 284 284 284 284 284 279 278 278 278 278 279 277 276 275 274 273 272 271 271 271 271 271 271 271 271 270 270 270 270 270 270 271 272 274 274 273 273 273 271 271 269 269 269 269 268 267 266 265 265 265 264 262
281 280 280 279 279 279 279 278 278 278 278 277 277 276 276 276 276 276 276 277 276 276 276 275 274 276 280 278 281 283 283 283 283 283 284 284 284 282 279 278 277 277 277 278 278 276 274 273 272 271 271 271 270 270 270 270 270 270 272 271 271 271 271 272 273 273 273 273 273 272 272 272 271 270 269 268 268 267 267 266 265 264 264 264 264
281 280 280 279 279 278 278 279 278 278 278 276 276 276 275 275 275 275 275 274 274 273 273 273 275 276 277 277 279 280 280 282 282 282 282 282 281 280 277 276 276 276 276 276 277 277 276 275 273 272 271 271 271 271 272 272 273 273 273 273 273 273 275 274 275 274 273 273 272 272 271 271 270 270 269 268 267 267 266 265 265 264 264 264 264
279 280 280 280 280 278 278 278 277 278 277 277 276 275 274 274 273 274 274 274 273 273 272 273 274 275 276 276 276 278 279 278 277 276 277 277 277 275 274 273 273 272 271 273 274 275 275 275 274 274 274 274 274 275 275 275 275 275 275 275 275 275 275 275 274 274 273 272 272 271 270 270 269 269 269 268 267 267 266 265 265 264 263 263 263
277 276 279 280 279 279 278 277 276 277 276 276 275 275 274 274 274 274 274 274 273 273 272 272 273 274 275 274 275 277 277 276 276 275 275 275 275 275 274 273 272 272 272 271 271 272 273 274 276 276 276 277 277 277 277 276 276 276 276 275 275 274 275 275 274 274 273 273 272 271 269 269 268 268 268 268 267 267 266 265 265 264 264 263 263
279 279 276 279 279 279 276 276 276 277 276 276 276 276 275 275 275 274 274 274 273 272 272 272 273 273 273 274 277 278 276 276 276 276 276 275 275 275 276 275 275 274 274 273 273 273 274 275 276 276 276 277 277 277 276 276 276 275 275 275 274 274 274 274 274 274 274 273 272 270 269 268 267 266 266 266 267 267 266 265 264 264 263 263 263
278 277 277 277 277 277 276 275 276 275 275 274 275 276 275 274 274 273 273 273 272 272 272 271 271 269 272 275 277 279 276 273 275 275 276 276 276 276 276 277 277 277 276 276 276 276 276 276 276 276 276 276 276 275 275 274 274 274 274 274 274 273 272 273 273 273 272 272 271 270 269 268 267 267 267 268 266 266 265 264 263 263 263 263 262
276 277 277 276 276 276 275 275 275 274 274 274 274 272 272 273 272 272 272 272 271 271 271 270 268 266 270 275 275 277 273 271 270 273 274 274 275 274 275 274 271 270 271 271 271 274 275 275 274 273 273 273 272 272 272 271 271 270 270 270 270 270 270 270 270 270 270 269 269 268 268 267 267 266 266 265 265 264 264 263 262 261 261 261 261
275 275 275 274 274 273 272 273 273 273 273 271 270 270 270 270 270 270 271 271 270 270 270 269 267 266 267 271 273 274 271 269 267 269 270 269 270 270 270 267 266 267 266 267 267 268 270 270 269 267 267 268 268 268 268 268 268 268 268 268 267 267 267 267 268 268 267 267 266 266 266 265 265 265 264 264 264 263 262 262 261 261 260 260 260
274 273 273 273 273 273 272 272 272 271 270 269 270 270 269 271 270 270 270 270 268 268 267 266 265 265 266 266 267 267 265 265 263 263 263 265 265 264 262 263 263 264 264 263 263 264 265 264 264 264 264 262 262 264 264 263 264 264 265 265 265 265 265 265 265 265 264 264 264 264 264 264 264 264 264 263 263 262 261 261 260 260 259 259 258
273 273 272 272 271 270 270 271 269 270 270 270 269 269 268 269 269 268 267 267 266 266 265 264 264 263 264 264 263 263 262 261 260 259 259 258 258 256 255 255 255 257 258 258 258 259 260 260 260 260 259 257 256 255 255 255 255 255 255 256 257 258 259 260 260 261 262 263 263 263 264 263 263 263 262 262 261 261 261 260 259 259 258 257 257
272 271 271 270 270 269 268 268 269 269 268 268 268 267 267 267 266 265 264 265 264 263 263 263 263 262 261 263 263 263 261 260 258 258 257 256 255 256 255 255 255 255 254 253 254 255 255 256 255 254 253 253 253 254 253 253 254 254 255 255 256 257 258 259 260 262 261 261 262 262 263 262 262 261 261 261 260 260 259 259 258 258 257 257 256
271 271 270 269 269 268 268 268 267 265 267 266 266 265 265 264 264 264 263 263 262 262 261 261 261 260 260 259 259 260 259 258 256 256 255 255 254 253 254 253 255 253 253 254 254 254 254 253 253 253 254 254 255 254 254 254 253 253 253 252 252 253 256 258 258 259 259 259 260 261 261 261 261 261 260 260 259 259 258 258 257 257 257 256 256
269 269 268 268 268 267 267 267 266 267 266 265 264 263 263 263 262 262 262 262 261 261 262 261 260 259 259 258 257 257 257 257 256 255 255 255 255 254 254 254 255 253 254 254 255 255 254 253 253 253 253 253 253 254 253 253 253 252 253 251 254 259 259 258 256 256 256 256 257 257 257 258 259 258 258 258 258 258 258 257 256 256 255 255 255
267 266 266 266 265 265 265 265 265 265 264 264 263 262 262 261 261 261 260 260 260 260 260 259 259 259 259 259 258 258 258 257 256 256 256 256 256 256 256 255 255 255 255 256 255 255 255 254 253 253 253 253 253 253 253 254 253 254 253 254 260 260 260 260 258 257 256 254 256 256 257 257 257 257 257 257 257 257 257 256 256 255 255 255 254
264 264 264 264 264 264 264 264 263 263 263 263 262 262 261 261 260 260 260 260 260 259 259 259 259 258 258 258 258 258 258 257 257 257 258 258 257 257 256 256 256 255 254 254 254 254 253 253 253 253 253 254 254 254 253 254 253 254 256 259 260 260 260 260 258 258 257 255 254 254 255 256 256 256 255 255 255 255 255 255 254 254 254 254 254
Wind_Speed
7 7 7 8 7 8 8 7 8 7 6 8 8 8 8 9 9 8 6 8 7 8 8 8 9 9 9 9 9 8 8 7 7 7 8 8 8 9 10 9 10 8 10 9 7 9 10 11 9 7 8 10 8 8 8 8 8 7 6 6 6 5 7 4 6 5 2 2 3 4 5 7 5 6 5 4 4 4 5 4 4 4 4 5 4
7 7 7 7 8 8 8 7 7 6 7 8 9 8 7 8 8 7 8 7 8 9 9 8 8 8 8 8 8 8 7 8 7 8 8 8 8 7 10 12 11 10 10 11 9 8 9 11 9 9 6 10 10 9 9 9 9 8 6 7 6 4 2 5 3 5 5 2 3 2 4 5 5 3 7 5 5 4 5 5 4 5 5 5 5
7 7 8 8 8 7 7 7 7 7 9 8 8 8 7 7 7 9 8 8 7 8 9 9 9 9 9 9 9 8 9 9 8 8 8 10 11 9 10 11 12 12 12 13 12 10 11 11 11 9 7 9 8 8 8 9 8 9 7 6 7 4 2 4 5 3 7 4 4 5 5 4 5 5 6 5 4 4 5 5 5 4 4 5 5
7 7 7 8 7 7 8 7 8 9 10 9 9 8 8 7 7 8 8 8 9 7 8 9 9 10 9 9 9 9 9 9 9 9 10 11 12 12 11 11 12 13 13 11 11 11 13 12 10 10 10 11 9 8 7 8 8 8 8 6 7 5 4 4 4 5 4 7 5 7 6 6 5 2 4 4 5 4 4 5 3 4 5 4 5
8 8 8 8 8 9 9 9 9 10 10 8 9 7 7 8 7 8 8 8 8 8 6 7 9 9 10 10 10 10 10 10 11 10 9 10 11 12 12 11 12 12 12 13 13 13 13 13 13 11 11 12 9 9 8 10 8 8 8 7 7 5 4 5 5 5 6 7 5 4 5 5 4 3 5 5 4 4 3 5 6 6 5 5 5
8 8 8 9 9 10 10 9 11 11 10 9 9 8 8 7 8 7 8 10 9 8 9 8 9 10 9 10 10 10 10 10 11 11 11 10 10 10 10 11 11 11 11 11 12 11 13 13 13 13 13 14 12 10 10 11 9 9 9 7 6 5 6 5 5 5 5 6 7 5 4 5 3 3 5 5 5 4 5 5 5 5 5 6 5
8 8 9 9 9 11 11 12 11 10 10 9 8 8 8 8 8 8 8 9 9 9 8 9 8 9 9 9 10 10 10 10 10 10 9 10 11 11 11 10 10 9 10 11 11 11 11 12 13 13 13 13 14 13 12 11 9 9 9 9 7 7 6 5 5 5 5 5 3 4 5 4 4 5 3 5 5 5 6 4 6 5 5 6 6
8 9 9 10 11 12 11 10 10 10 9 8 8 9 8 8 8 7 8 9 9 9 10 10 9 9 9 9 9 9 9 9 10 10 10 11 11 11 11 11 11 10 10 10 10 10 10 12 13 12 13 13 14 13 13 12 10 9 8 8 8 8 7 6 6 5 5 5 5 5 4 5 3 2 2 3 4 5 6 6 7 5 5 4 5
10 10 10 11 13 11 8 8 8 8 8 8 9 9 9 8 7 8 8 9 7 8 8 9 10 9 8 9 9 8 9 10 10 11 12 12 11 12 12 12 12 12 11 10 9 8 9 10 10 10 12 14 17 15 13 12 12 10 8 9 10 9 7 6 5 5 4 4 4 4 5 5 5 5 5 5 8 9 4 6 6 6 4 4 5
11 10 11 13 12 8 9 8 9 8 9 10 9 9 9 8 8 8 9 9 8 8 8 9 9 10 10 10 9 8 9 8 12 17 14 12 12 10 10 11 12 12 12 11 9 8 9 9 9 14 16 17 18 16 13 13 11 13 14 12 11 9 9 8 7 6 6 6 6 6 5 6 7 7 7 7 5 3 3 4 6 4 2 5 5
10 10 13 13 9 8 8 9 8 10 10 9 8 9 9 8 8 8 8 8 9 9 9 10 10 9 10 10 11 10 9 9 16 17 15 15 12 11 12 11 11 12 12 13 13 12 10 9 9 11 13 14 14 17 15 15 14 13 15 14 11 13 12 10 8 8 8 7 6 6 7 7 7 6 7 6 4 6 6 5 6 4 5 4 7
11 12 13 10 8 10 9 8 9 9 8 10 9 8 8 8 9 9 8 8 8 7 10 10 9 9 9 9 10 10 9 12 16 18 14 15 13 11 9 10 10 10 11 12 11 11 10 9 8 8 9 11 11 12 12 14 14 14 15 15 15 13 12 12 10 9 9 8 7 8 6 7 6 5 6 4 6 5 5 5 6 7 6 6 4
11 11 10 9 9 9 7 8 9 8 9 8 8 8 9 9 10 9 11 8 6 9 9 9 9 9 9 10 10 10 9 13 17 19 17 16 16 12 10 11 12 12 11 12 11 11 10 10 10 8 8 14 12 10 10 10 12 14 14 14 14 15 15 15 13 10 8 8 8 8 8 7 6 7 7 5 3 6 4 4 5 6 6 6 7
10 11 9 8 8 7 7 8 9 9 8 8 8 9 10 11 10 8 7 7 9 9 9 10 8 8 9 9 9 9 9 12 17 18 19 18 17 15 10 12 12 13 13 13 13 13 13 13 12 10 9 10 9 10 10 9 9 9 9 8 8 11 14 16 15 12 9 8 8 8 8 6 7 6 4 4 5 6 5 6 4 5 6 9 4
9 9 9 7 6 7 9 9 9 8 9 9 9 10 11 9 8 8 9 10 10 10 10 9 9 8 8 8 7 9 9 14 17 19 21 18 18 13 8 8 9 10 10 11 13 14 14 13 13 13 12 10 9 12 12 11 10 9 9 9 8 7 8 9 9 7 7 7 8 8 7 6 6 4 3 5 7 6 6 6 6 6 3 1 2
9 7 9 8 9 9 9 9 9 8 8 8 9 10 9 10 10 8 7 6 6 5 6 7 9 9 8 8 8 8 7 14 18 20 19 16 18 10 8 10 9 10 11 11 11 10 11 12 12 12 12 12 13 18 13 10 10 11 10 8 7 6 7 7 6 5 6 8 8 8 7 6 6 5 5 4 4 3 2 3 2 2 2 5 8
10 11 10 9 10 9 9 9 8 8 9 9 10 10 10 9 8 6 7 7 8 8 8 8 7 8 9 9 10 8 7 11 15 17 17 19 15 9 9 9 8 9 10 11 10 10 10 11 11 11 12 10 14 19 17 14 10 11 10 9 7 6 8 6 9 13 14 14 13 13 13 12 12 12 12 13 9 6 4 2 7 4 3 7 9
10 9 9 9 8 7 8 9 9 9 9 11 11 9 7 6 8 8 10 9 8 8 7 7 7 8 9 10 9 9 7 10 16 17 18 21 14 11 9 9 9 8 7 7 7 8 9 10 10 11 12 11 18 21 21 15 11 11 10 9 8 8 9 6 5 7 13 14 15 16 15 15 14 14 14 14 15 9 8 9 5 5 7 6 9
8 9 9 7 6 7 8 8 8 9 10 9 9 9 9 9 7 6 7 7 7 6 6 7 6 6 7 8 9 9 7 9 16 18 19 19 15 10 10 9 10 9 9 8 6 6 7 6 10 11 11 13 22 22 22 17 11 11 11 10 9 9 11 7 8 7 6 6 8 9 9 12 10 8 8 15 16 10 10 9 4 6 7 7 7
6 5 5 5 6 7 7 8 8 9 10 8 8 8 6 6 7 8 6 6 6 6 6 6 8 7 6 7 8 8 8 8 12 19 20 18 17 11 9 10 11 11 10 10 10 7 7 8 10 14 14 19 21 22 23 23 12 10 9 9 9 12 7 6 8 7 7 7 6 6 7 5 4 5 4 6 8 8 7 7 6 7 8 8 7
4 5 4 5 5 7 6 8 9 8 8 9 8 7 7 8 7 7 7 6 6 6 7 6 6 6 5 6 6 7 7 8 10 18 20 17 19 15 10 10 10 10 10 10 10 11 10 9 8 15 18 19 21 23 23 23 15 9 10 10 12 5 8 7 8 11 6 6 6 5 5 4 5 4 5 6 5 5 5 6 8 9 8 8 8
4 4 5 6 6 6 6 5 7 8 6 7 7 6 5 6 7 8 7 6 7 7 6 5 5 5 4 5 5 6 6 10 8 15 18 18 20 18 11 10 10 11 10 10 11 10 12 12 10 15 21 19 21 22 23 21 19 9 10 13 10 10 7 5 5 5 6 5 5 5 5 5 5 5 6 5 5 6 6 8 8 7 8 9 9
4 4 4 5 6 7 7 8 8 7 7 8 9 8 7 7 6 7 7 7 7 7 7 6 5 5 4 3 3 4 5 6 11 11 17 18 19 19 16 11 15 11 12 13 13 11 10 10 10 17 20 19 20 21 22 23 17 10 15 14 13 14 9 5 6 5 5 6 5 6 6 6 6 6 6 6 6 7 8 8 9 9 9 9 10
4 5 5 5 5 5 6 6 7 7 9 9 9 9 9 8 8 8 8 8 8 7 6 6 6 6 6 5 4 5 5 5 8 12 13 19 19 20 19 17 17 12 10 10 11 11 10 10 10 19 20 20 21 20 20 19 11 16 16 16 16 13 7 6 6 6 6 6 6 6 7 6 6 5 6 7 7 8 9 9 8 9 9 9 9
5 5 5 5 5 5 5 6 7 7 7 9 9 8 8 8 8 6 7 7 7 8 7 7 8 7 7 7 6 5 5 5 5 10 14 16 19 20 19 18 17 15 10 7 8 8 10 14 15 20 21 21 21 20 17 17 18 15 17 16 13 7 7 6 7 6 7 7 8 7 7 7 7 8 7 7 8 5 3 5 6 7 7 7 6
5 5 5 5 5 5 6 5 7 8 8 8 9 9 10 9 8 7 6 6 6 7 7 7 7 7 7 6 6 6 6 5 6 6 8 10 12 18 18 17 16 14 10 6 9 12 14 15 16 18 19 17 12 9 6 8 14 16 15 13 8 7 7 7 7 7 10 9 8 8 7 6 6 7 7 6 5 6 6 6 6 6 6 7 7
5 5 7 7 6 7 8 6 5 5 6 7 7 8 8 8 8 8 8 8 7 7 7 7 7 7 7 7 6 6 6 6 6 6 6 7 7 9 12 12 14 13 10 7 9 9 11 12 10 12 11 14 14 11 9 8 8 8 8 8 7 7 7 7 8 8 8 8 7 7 6 6 5 4 5 6 7 7 7 7 6 7 6 6 6
6 6 6 5 6 7 7 9 10 8 7 8 8 7 7 9 9 10 11 10 10 9 9 9 10 10 9 7 7 6 7 7 8 8 8 8 8 8 8 8 10 9 9 8 8 8 9 10 11 8 8 8 8 6 7 7 7 7 7 7 7 7 8 9 8 7 7 6 5 4 4 4 5 6 5 6 6 6 6 6 7 6 5 4 3
6 5 6 6 6 5 6 6 7 7 8 7 8 9 11 10 10 9 9 9 11 12 11 9 9 8 8 9 9 8 8 9 11 10 10 13 12 11 10 10 10 9 11 12 9 8 8 8 8 8 8 8 8 8 7 7 7 7 7 7 6 7 7 7 8 8 7 5 6 5 5 4 5 5 5 5 5 5 4 5 5 5 3 4 7
6 7 7 7 7 7 7 7 6 7 7 7 7 4 4 8 8 10 9 10 11 8 9 9 9 8 8 8 9 11 12 11 11 18 17 18 19 19 14 13 14 11 13 20 12 9 10 9 9 9 9 8 8 8 8 7 7 7 7 8 7 7 7 8 8 7 6 6 5 5 5 5 5 5 5 6 5 4 5 6 5 5 5 6 6
7 6 7 8 9 8 7 7 7 7 6 7 6 7 6 4 8 8 6 10 10 12 11 8 9 11 9 7 8 11 4 8 16 18 19 19 19 19 18 18 19 18 18 14 11 11 10 10 10 9 9 8 8 9 8 8 7 7 7 7 7 8 9 7 8 6 6 6 6 6 6 6 6 5 6 6 6 4 4 4 4 4 6 6 7
9 9 8 7 8 9 8 8 8 8 8 8 8 8 7 7 4 8 10 10 12 13 12 11 13 14 13 10 7 6 9 12 14 16 18 19 19 19 19 21 21 20 21 19 10 10 10 10 9 9 8 9 9 8 8 8 7 7 7 7 8 8 8 8 7 6 6 6 6 6 6 6 5 5 5 5 5 5 6 6 5 6 6 6 7
11 10 9 9 9 10 9 9 10 10 10 10 9 9 9 9 9 7 7 11 13 13 13 13 14 14 15 14 13 10 9 11 15 16 18 19 19 19 19 22 22 22 22 15 10 10 9 10 9 9 9 10 8 8 7 7 7 7 7 8 8 8 8 7 6 7 7 7 6 6 6 6 5 5 4 4 5 5 5 7 6 5 5 6 6
13 11 10 10 10 10 11 11 11 11 11 10 10 10 9 9 9 9 9 7 7 10 13 16 15 15 16 16 15 14 14 15 15 16 17 17 18 19 19 16 22 25 19 11 10 9 9 8 9 8 8 7 7 6 6 6 6 7 6 7 7 6 6 5 6 7 6 7 7 6 6 6 5 5 5 5 5 5 5 5 5 6 6 7 7
11 12 15 12 11 11 11 10 10 10 9 10 10 10 10 9 9 10 11 11 11 11 9 9 14 16 11 12 15 16 14 15 16 15 16 16 18 19 19 11 13 13 14 10 9 9 9 10 9 8 7 7 7 7 7 6 6 7 8 7 6 6 6 6 7 7 7 7 7 6 6 6 6 6 6 6 5 5 5 5 6 6 7 6 7
11 10 10 13 12 10 10 10 10 10 10 10 9 9 8 9 10 9 8 9 9 9 7 6 5 9 14 10 13 14 14 13 13 13 13 16 17 20 12 11 10 11 11 11 10 9 8 7 7 7 6 6 5 6 6 7 7 7 7 7 7 7 7 7 8 7 7 7 7 8 7 6 6 6 5 5 6 7 6 6 6 6 7 7 6
10 9 9 9 8 4 4 5 7 8 7 7 8 8 8 7 6 7 7 8 8 7 8 7 4 3 5 4 8 11 12 12 13 13 14 15 20 15 10 11 11 11 10 10 9 8 8 7 6 6 6 6 6 6 6 7 6 7 6 7 7 7 8 7 8 7 7 7 7 7 7 7 7 7 7 7 6 6 6 6 6 7 7 8 6
9 9 8 6 6 7 6 6 6 7 7 7 8 8 9 8 9 8 8 8 8 8 8 7 7 9 9 8 6 6 7 10 12 11 12 14 12 10 9 8 8 9 10 8 7 7 7 5 5 6 6 6 6 6 6 7 7 7 7 7 7 7 10 8 10 9 8 7 7 7 7 7 6 6 6 7 7 6 6 6 7 7 6 8 7
8 8 7 7 7 6 6 4 3 5 5 5 6 7 8 8 8 7 7 7 7 7 6 8 8 8 8 6 6 6 8 7 8 8 8 7 7 6 7 7 7 7 6 6 6 6 6 6 6 6 6 6 6 7 7 7 7 7 7 7 7 7 8 7 7 7 7 7 7 6 7 7 6 6 7 7 8 7 7 7 7 7 7 6 7
6 6 7 11 7 8 6 6 7 6 5 6 7 7 8 8 9 9 7 7 7 7 7 8 8 8 6 7 8 8 9 9 8 7 7 8 8 7 7 7 7 7 6 6 5 5 5 5 5 6 6 6 6 7 7 7 7 7 7 7 7 7 8 7 7 7 7 7 7 7 7 7 7 7 6 7 7 6 7 7 7 8 7 7 6
7 7 7 10 10 9 8 9 8 9 8 8 8 8 9 8 8 7 8 8 8 8 8 7 7 5 5 9 12 12 9 8 8 7 8 8 7 7 7 6 6 5 4 4 4 4 5 5 5 6 6 7 7 7 7 7 7 7 7 6 6 7 6 7 7 7 7 8 8 7 7 7 6 6 7 7 7 7 7 6 6 6 6 6 6
7 7 7 6 7 7 7 7 7 9 9 7 8 8 6 6 7 7 7 8 6 6 6 5 4 4 7 14 13 17 9 5 6 5 6 6 6 6 5 4 4 4 4 4 5 5 5 6 6 6 7 7 7 6 6 6 7 7 7 7 7 6 6 6 6 6 6 6 6 6 6 6 7 7 8 6 6 6 6 6 6 6 6 6 6
6 6 7 6 7 8 8 8 6 6 7 7 7 6 5 6 6 4 5 4 5 5 6 6 5 4 6 12 11 13 6 5 4 6 5 4 4 3 3 3 3 2 2 2 1 3 5 5 5 5 5 5 5 5 6 5 5 5 4 5 5 5 4 4 4 4 4 4 5 5 5 5 6 6 6 5 6 6 6 6 6 6 6 6 5
5 3 3 5 6 8 6 7 6 5 5 5 5 3 4 5 5 6 6 5 5 5 5 5 5 5 6 7 8 7 5 5 4 5 5 3 4 3 3 2 3 3 3 2 2 2 4 4 4 4 4 4 4 4 4 4 4 4 4 4 4 4 4 4 4 4 4 4 4 4 4 4 5 5 5 5 6 6 6 6 6 5 5 5 5
5 6 6 5 4 4 5 7 8 8 7 5 6 5 3 4 4 4 5 5 4 4 5 5 6 6 5 6 6 5 4 5 3 3 3 4 3 3 3 3 4 4 4 4 3 4 4 5 5 5 4 3 3 3 3 3 3 3 4 4 4 5 5 4 4 4 4 4 4 4 4 4 5 5 5 5 6 6 6 6 6 5 6 6 6
5 6 6 6 4 3 4 4 4 6 6 6 6 5 4 4 4 4 4 4 4 6 5 5 5 5 4 4 3 4 3 3 3 2 4 3 4 3 3 3 4 4 4 4 4 4 4 4 4 4 4 3 3 2 2 3 3 3 3 3 3 3 3 4 3 4 4 4 4 4 4 4 5 5 5 5 5 6 6 6 6 6 7 7 7
0 1 2 4 5 4 4 4 5 5 5 5 5 5 5 4 4 4 3 4 6 4 5 5 5 5 4 4 4 4 4 5 4 3 3 3 4 4 5 5 5 5 4 3 3 4 4 4 3 4 4 3 3 3 2 2 3 3 3 3 3 2 1 2 3 4 4 4 5 5 5 5 5 4 5 5 5 6 6 7 7 8 7 7 6
1 3 4 4 5 6 6 5 6 5 5 5 5 4 4 4 4 4 4 5 6 5 6 5 5 5 5 5 4 5 5 5 4 5 5 5 4 4 5 4 5 4 4 4 3 3 3 3 3 3 3 2 2 2 2 2 2 2 2 2 2 2 2 2 1 1 2 3 4 4 4 5 4 5 5 6 6 6 6 6 5 5 5 5 5
2 2 3 4 5 6 5 6 4 6 6 6 6 6 4 5 4 4 4 5 5 5 5 5 5 5 5 4 4 4 5 5 5 5 4 4 4 5 4 4 4 3 3 3 2 2 2 2 2 2 2 3 3 3 4 3 3 3 3 3 3 5 5 5 3 2 3 2 3 3 3 4 5 5 5 5 6 5 6 5 5 6 5 5 5
4 3 3 4 5 5 4 4 6 6 5 5 6 6 5 4 5 4 5 5 5 5 5 5 5 5 5 5 4 4 4 4 5 5 5 4 4 4 4 3 3 3 3 3 2 3 2 2 2 2 2 3 3 3 3 2 2 3 2 2 5 4 5 5 6 4 3 3 3 4 4 4 3 4 4 5 5 5 5 5 6 5 6 6 6
4 4 4 5 5 5 6 7 8 8 6 6 6 5 5 6 6 5 5 5 5 5 5 5 5 4 4 4 4 4 4 4 4 4 4 3 3 3 3 3 3 3 2 1 1 1 2 2 2 3 3 3 2 3 2 2 2 2 4 5 6 6 6 6 4 5 5 4 2 3 4 4 4 5 4 4 4 5 6 6 6 6 6 6 6
Wind_Direction
194 201 188 200 196 204 208 210 220 225 222 207 204 203 189 183 184 184 168 185 172 176 179 180 180 181 179 182 181 179 177 173 172 163 164 163 166 160 156 157 156 156 152 158 162 157 158 151 154 152 149 133 136 134 132 135 125 119 126 125 125 141 141 125 123 125 49 57 122 164 167 153 180 187 196 208 225 227 211 218 225 231 240 240 241
201 196 198 197 202 204 205 207 210 216 223 215 207 202 196 189 180 164 179 180 175 179 181 179 178 174 175 180 181 179 179 175 171 167 164 162 163 166 165 161 160 160 162 162 166 165 154 148 150 151 156 138 142 141 140 134 130 126 134 132 127 122 150 109 124 134 151 114 101 96 151 175 181 197 195 199 223 209 222 229 230 223 232 236 240
197 194 197 199 205 202 202 206 204 212 219 219 213 199 197 192 180 176 177 173 185 180 177 174 173 170 173 176 174 175 176 173 172 170 170 167 165 171 173 168 165 165 170 170 168 160 153 153 156 151 147 133 137 136 137 133 131 129 130 125 118 119 99 128 128 120 150 171 152 160 175 190 192 195 205 209 208 197 212 228 229 231 221 222 228
196 194 198 203 199 198 204 203 204 209 215 216 216 205 194 193 187 185 178 171 180 184 174 169 166 169 171 173 176 174 172 173 175 182 179 177 174 174 175 175 171 170 168 166 166 164 160 154 159 154 148 137 141 140 137 129 128 128 124 120 119 121 113 98 99 122 150 149 191 178 186 177 226 208 185 196 200 216 217 239 237 242 247 230 220
194 198 194 199 200 202 207 201 207 209 214 211 215 206 201 193 191 189 178 179 180 171 172 166 167 171 174 177 179 180 179 175 178 182 183 184 181 175 175 175 173 172 170 170 171 168 164 160 159 156 150 140 144 140 141 133 135 129 124 125 119 123 101 98 94 108 141 169 165 186 169 199 198 189 179 182 223 230 236 219 239 243 245 236 229
197 192 195 199 205 207 208 206 209 208 208 210 208 203 199 195 193 195 184 182 179 178 170 174 175 180 182 185 185 186 182 181 184 184 183 180 179 177 176 177 175 170 169 172 172 172 165 161 161 161 156 151 151 144 140 137 133 128 127 126 123 117 110 100 103 116 137 156 156 148 174 179 189 200 189 192 196 227 243 245 248 242 240 256 238
195 194 199 204 208 213 208 211 208 207 206 205 200 200 201 198 193 194 189 184 180 178 178 177 186 184 190 187 188 185 184 184 185 183 179 178 179 176 175 176 173 168 171 172 174 173 168 162 163 165 158 149 147 152 147 140 138 139 141 138 136 129 131 136 140 140 148 146 152 165 169 203 177 208 204 190 208 209 223 247 260 234 225 226 253
193 200 198 208 215 217 211 208 207 207 203 199 198 200 199 200 198 193 188 189 186 182 179 182 185 189 192 190 190 185 183 184 185 183 181 180 178 178 174 174 170 167 166 172 173 171 169 169 168 166 157 157 154 153 147 145 142 142 147 141 143 143 148 150 152 158 159 169 175 175 188 183 226 179 115 143 211 245 216 208 241 248 235 237 224
198 200 201 210 220 215 203 204 204 203 199 197 198 199 199 199 196 192 194 195 189 187 181 181 182 189 189 189 188 185 185 188 187 184 182 185 181 176 175 174 172 166 165 167 169 166 167 169 169 165 162 159 156 154 155 150 148 148 158 154 154 153 152 159 162 161 173 174 190 175 180 202 209 189 192 193 203 217 196 192 236 249 240 263 270
199 202 206 217 220 202 199 197 198 196 198 199 199 195 195 196 193 196 197 194 188 184 183 186 188 188 186 190 188 186 193 193 193 189 187 183 180 176 172 172 170 168 163 162 164 167 170 171 173 165 160 159 157 150 143 151 154 156 162 164 162 159 160 160 168 174 174 184 194 182 192 211 213 206 204 219 209 197 182 192 222 236 202 255 270
207 203 214 221 213 198 198 202 189 198 200 195 194 192 194 191 195 197 196 194 189 184 181 188 192 189 189 188 189 193 195 197 197 191 183 181 177 173 173 172 172 168 167 164 166 170 173 171 160 164 159 153 150 149 150 154 157 159 162 164 165 162 161 166 177 177 181 191 187 188 199 213 223 199 211 216 205 200 212 200 218 212 232 256 277
208 212 219 217 206 205 204 193 195 202 191 198 191 192 187 190 195 195 194 195 193 180 188 192 189 188 189 190 193 194 197 195 190 192 180 178 175 173 167 166 168 170 170 169 167 167 166 160 159 160 163 157 152 150 153 157 158 162 165 169 171 170 170 167 169 178 186 182 186 200 194 216 221 194 212 198 217 203 211 199 205 214 233 235 238
212 218 220 214 210 207 197 195 200 198 199 191 187 183 189 193 196 193 198 194 182 188 192 185 191 189 189 191 196 195 198 194 194 191 184 176 173 164 174 171 169 172 172 170 166 163 164 162 159 164 161 156 151 154 155 159 166 170 174 177 180 183 184 186 183 181 176 179 187 203 203 204 215 228 203 192 168 201 203 211 222 224 227 236 238
216 224 222 218 210 200 197 196 201 202 190 187 185 189 192 200 198 194 187 184 192 195 191 190 188 192 192 193 197 197 197 194 191 189 188 185 174 172 175 175 177 172 171 171 168 170 168 166 163 161 163 161 160 155 156 158 161 168 176 183 188 193 198 203 202 187 170 182 188 206 218 187 211 226 199 169 169 210 202 228 212 225 227 233 238
221 225 225 220 200 201 201 200 203 196 190 188 188 195 197 197 192 192 189 190 191 193 190 189 193 191 195 196 198 200 203 193 191 192 192 183 174 167 167 170 174 172 172 173 174 172 172 172 166 162 162 163 168 164 159 163 163 169 176 182 185 189 197 205 205 196 183 192 200 214 223 208 218 217 172 188 198 209 204 213 207 221 224 356 353
224 223 228 215 208 206 199 202 203 193 188 188 192 199 197 194 194 190 185 190 195 193 203 194 190 191 192 193 195 202 199 194 193 192 187 175 168 161 164 173 176 175 173 175 177 178 173 167 163 164 167 172 173 170 165 157 164 172 181 184 184 193 216 220 210 198 196 201 207 213 224 219 204 197 191 192 207 193 124 66 74 118 236 278 262
220 220 222 212 210 204 200 199 197 189 187 189 197 198 194 195 194 176 181 188 188 193 196 191 186 184 187 190 192 196 191 190 189 189 184 169 166 171 167 171 175 179 181 174 177 178 178 171 165 164 170 172 173 173 168 161 168 179 181 181 182 194 225 222 218 220 221 221 222 225 230 231 232 230 224 219 205 182 144 174 235 191 210 262 266
225 219 220 215 209 198 198 194 194 189 187 196 197 197 192 193 189 180 185 184 191 194 187 189 192 190 188 193 191 189 190 190 190 192 189 179 169 173 172 170 170 172 172 177 174 175 177 171 168 163 165 173 175 177 176 170 176 182 175 169 176 204 228 208 195 222 228 231 234 237 239 242 240 239 238 237 235 185 174 215 213 151 225 225 262
225 220 222 208 199 197 193 192 190 186 192 196 189 189 190 191 182 175 187 184 191 181 187 189 193 194 197 195 191 187 180 190 191 193 192 181 167 174 170 172 168 173 170 170 170 170 174 166 170 172 171 168 176 179 180 178 181 181 175 165 186 205 223 185 192 199 201 209 228 227 236 238 237 234 235 239 243 218 192 218 167 176 219 230 241
225 223 214 197 197 192 188 188 188 185 190 188 188 190 173 160 171 177 184 179 178 179 184 188 186 193 186 186 190 186 180 190 193 194 194 181 168 169 175 171 178 173 172 170 164 173 175 175 184 184 175 174 179 182 186 186 183 177 163 177 181 217 205 174 194 191 195 200 212 209 223 218 220 229 222 230 237 240 211 200 195 197 217 234 221
214 210 199 193 193 193 188 187 185 189 185 183 176 167 168 171 166 169 172 167 164 171 180 183 184 185 183 184 182 187 185 185 196 194 194 179 170 166 181 183 175 171 171 171 176 173 176 183 185 189 183 182 182 184 188 191 186 173 178 185 199 175 136 182 194 198 193 197 198 204 214 210 222 223 229 225 230 233 243 223 196 205 210 225 233
204 190 187 191 192 187 185 184 180 175 165 149 152 162 165 159 167 166 164 164 169 175 174 178 179 178 177 179 184 185 189 189 185 194 189 175 176 174 177 187 176 170 170 177 179 184 184 181 183 190 188 184 185 188 192 193 187 176 198 203 190 176 165 163 161 172 188 189 194 202 203 211 219 221 224 228 224 230 225 237 236 215 207 207 214
194 190 187 183 184 180 177 171 166 158 159 160 158 161 159 157 161 158 159 162 167 170 173 171 166 168 170 185 185 185 186 196 192 192 194 182 179 182 180 174 178 175 177 182 186 185 182 185 188 187 187 184 187 192 197 198 189 191 199 202 202 206 199 177 170 175 185 194 195 208 207 208 217 218 217 218 222 221 228 231 233 236 235 225 224
176 175 184 186 178 180 173 168 160 159 159 157 159 155 162 163 162 168 167 166 167 169 172 166 167 173 182 187 190 190 189 187 200 196 194 192 186 187 186 183 181 184 187 186 182 183 180 184 182 184 187 188 192 196 200 200 199 201 200 203 209 210 204 196 187 194 197 202 209 216 218 215 211 216 212 214 215 217 223 226 234 235 241 246 242
178 182 179 177 174 171 161 162 163 161 162 158 156 161 160 159 163 173 165 169 171 174 175 174 179 183 183 188 188 186 186 189 196 204 200 196 193 190 188 185 186 181 186 187 178 183 182 178 176 184 189 191 193 199 203 204 205 206 209 211 208 204 206 202 196 193 197 208 217 221 225 216 210 215 213 213 220 216 218 238 234 238 245 255 257
189 185 175 173 176 165 162 167 166 165 163 167 164 165 163 167 164 166 168 174 174 175 173 177 184 183 193 190 187 185 183 184 194 200 205 202 197 194 190 188 188 185 180 163 164 166 171 174 177 186 190 193 194 196 194 200 209 209 209 210 208 207 204 205 206 202 198 212 214 220 222 214 210 214 215 210 196 204 208 224 221 236 229 240 252
194 184 180 176 173 172 168 171 168 167 165 159 159 160 163 161 161 166 171 171 175 177 178 181 186 190 194 193 182 180 183 190 190 192 197 194 197 193 191 191 188 179 177 168 167 170 166 166 176 179 184 188 189 190 191 195 202 211 211 211 210 208 206 207 210 214 217 217 218 219 218 216 211 198 202 197 211 212 202 214 214 228 217 227 230
200 198 190 183 183 182 177 169 166 169 174 169 163 166 169 168 170 177 178 179 175 182 182 187 191 192 192 183 176 176 189 193 195 190 192 191 190 187 184 180 185 187 181 172 163 162 164 172 174 178 177 183 189 183 194 193 197 195 203 202 207 211 215 219 220 221 225 221 224 205 192 171 188 198 199 203 210 210 194 202 210 225 209 186 217
204 195 192 183 190 187 181 178 180 174 176 181 184 178 171 177 181 186 194 182 181 179 184 195 197 193 181 177 173 186 191 203 206 189 186 187 186 186 185 184 182 187 185 167 153 154 158 168 175 176 181 182 186 191 191 195 201 199 199 196 200 204 210 208 216 221 218 207 221 217 223 211 215 194 201 207 213 205 176 196 212 206 205 177 223
216 208 195 192 188 183 182 182 181 180 177 177 170 187 215 189 183 177 188 195 196 197 185 190 188 180 185 196 185 183 196 207 182 186 191 194 195 195 191 181 184 183 182 177 164 170 180 181 186 181 185 186 189 192 194 193 195 197 199 203 201 202 205 210 213 218 209 212 218 221 231 225 231 198 200 212 218 193 191 191 204 189 194 214 229
217 222 206 206 194 185 180 178 182 176 177 171 173 172 174 199 204 200 184 180 182 189 193 192 175 183 182 189 205 213 195 161 178 187 191 195 197 197 193 189 185 184 181 175 179 188 189 193 193 190 191 190 195 198 196 194 196 192 195 194 200 203 209 205 210 202 202 213 219 224 225 220 231 208 208 210 206 195 177 197 176 196 208 216 232
212 212 211 208 192 189 183 180 176 177 180 180 178 173 171 170 189 196 187 185 186 188 190 185 183 188 194 190 182 198 196 184 182 188 193 195 197 195 194 195 194 190 189 182 184 196 197 197 196 195 190 195 201 196 192 195 193 195 192 194 206 203 201 208 195 185 201 208 216 220 219 224 223 217 203 195 190 191 182 183 191 203 217 220 229
212 212 207 204 200 191 184 184 184 183 180 180 181 176 176 175 174 177 186 188 190 193 195 192 191 191 196 198 193 188 190 194 191 190 195 197 195 194 194 198 199 196 193 194 194 194 195 197 199 197 193 201 196 190 192 189 191 194 195 202 208 208 206 206 191 194 201 201 204 215 216 222 216 217 215 199 184 197 188 197 205 206 210 217 234
211 205 202 200 197 197 195 191 188 190 187 184 181 178 180 176 173 169 165 170 186 201 202 200 197 196 198 198 197 196 195 196 199 193 195 195 193 192 192 198 201 202 200 200 195 196 190 195 199 199 197 196 189 182 189 196 197 200 204 213 215 203 206 194 194 203 197 204 210 212 211 211 205 209 219 207 204 198 199 200 192 194 209 213 225
220 212 203 197 201 204 200 196 192 186 184 183 182 181 178 175 170 173 176 178 180 182 182 190 198 196 192 196 197 197 197 197 199 195 193 192 191 188 187 189 198 204 205 203 201 198 196 198 201 201 188 192 194 184 195 194 194 200 206 207 206 202 198 195 202 197 198 201 208 210 207 207 209 211 209 210 198 201 207 204 202 203 211 219 222
224 220 211 203 203 204 201 199 192 187 186 187 184 180 171 170 174 180 181 182 176 168 166 174 159 173 175 179 183 184 180 180 183 186 189 190 188 183 183 191 195 201 202 201 200 202 194 197 193 199 187 195 180 190 195 193 199 200 200 195 200 197 195 197 197 196 200 201 203 208 212 212 211 212 212 212 207 209 205 205 208 210 215 220 218
225 229 220 213 208 203 212 214 211 196 182 174 170 170 173 177 178 178 180 178 173 169 164 152 133 173 169 177 177 174 176 176 181 184 189 190 190 189 195 190 194 193 199 200 195 190 194 198 184 178 178 186 189 189 185 196 195 197 197 197 195 191 198 192 192 190 197 203 206 205 207 208 210 210 201 213 212 207 210 207 211 214 213 223 223
224 221 221 197 189 192 194 202 216 197 184 173 177 175 174 177 180 181 178 176 173 166 165 169 176 177 182 188 176 173 181 183 188 193 195 194 193 193 190 192 192 195 198 195 191 187 195 183 170 180 182 175 184 184 188 194 191 192 193 193 194 195 196 193 201 198 201 203 204 206 209 214 209 208 203 209 211 205 206 205 209 218 222 226 220
227 224 211 191 181 173 172 177 198 208 208 189 185 178 180 176 178 180 182 175 174 175 169 172 183 192 188 160 167 167 164 185 191 193 191 196 200 184 176 183 188 194 190 187 180 184 184 184 178 170 175 178 180 184 186 193 191 196 196 196 198 195 201 201 201 200 198 205 206 204 205 210 210 210 207 210 217 209 206 203 203 206 213 218 218
209 191 177 177 182 184 171 168 174 190 192 189 199 192 185 184 183 180 174 175 184 179 175 184 193 199 173 159 173 174 184 188 188 186 187 193 196 188 178 185 189 189 186 181 183 179 175 178 176 180 186 189 191 192 194 196 200 202 199 200 200 204 204 203 202 202 205 202 203 203 203 208 209 208 212 212 215 208 205 204 205 205 210 214 223
212 205 201 195 192 180 170 167 179 184 185 193 198 197 197 190 179 173 172 177 179 177 185 191 196 174 163 186 187 186 186 187 182 186 192 192 193 191 191 190 187 187 180 174 175 174 177 175 180 187 193 195 196 194 196 198 198 196 197 194 194 199 200 203 205 209 209 206 205 201 202 202 199 194 212 217 212 212 214 207 206 204 205 211 214
200 191 188 187 176 176 181 184 185 182 180 185 193 201 196 190 179 170 173 175 176 174 172 176 174 159 188 191 195 193 190 188 180 184 188 189 193 198 195 191 188 189 191 187 182 186 185 190 192 193 195 191 188 188 180 184 184 186 186 189 194 199 204 208 206 207 206 205 201 200 200 197 197 205 213 209 207 208 205 206 207 205 205 207 210
201 197 193 176 176 177 183 182 168 169 174 185 197 194 177 169 171 168 157 157 162 163 164 169 156 164 186 195 192 195 177 182 180 186 185 185 182 165 154 128 95 79 100 103 113 168 176 182 177 175 174 167 165 165 169 164 157 155 153 166 166 172 178 179 176 185 184 195 202 202 201 197 195 200 206 204 205 204 207 205 209 206 210 206 205
192 207 206 194 179 164 156 150 153 162 170 175 166 163 163 158 155 156 155 154 159 159 160 155 147 162 179 189 188 195 175 177 181 189 182 173 177 173 150 104 113 98 86 80 67 83 114 121 118 94 83 89 94 99 107 119 125 143 151 157 167 180 184 191 197 197 192 199 202 198 202 202 204 201 203 203 195 200 207 203 207 207 206 210 204
173 173 168 178 193 180 166 156 151 152 151 152 156 158 154 150 155 143 142 147 142 142 145 144 150 156 163 170 176 174 154 155 156 149 169 174 174 158 130 115 110 112 101 94 83 88 91 103 109 114 110 73 60 95 107 113 128 141 160 170 190 203 209 205 209 191 178 180 190 191 202 198 207 206 206 203 198 201 207 204 204 203 205 204 202
194 178 172 168 160 154 148 141 137 138 145 144 144 136 126 117 117 126 131 132 141 145 141 136 135 138 142 126 106 104 106 103 99 101 101 99 108 105 93 93 86 90 100 109 91 86 96 106 119 123 132 133 125 117 129 133 127 126 129 135 160 185 199 185 164 148 163 172 185 195 201 206 209 206 203 197 198 201 209 208 201 203 206 207 210
292 118 134 142 149 141 134 131 128 125 119 116 113 118 120 113 111 113 118 127 131 130 125 129 127 126 117 118 116 111 110 114 118 116 122 117 108 105 95 91 91 90 84 81 90 101 104 102 115 127 136 147 131 127 117 109 116 121 123 129 137 134 129 162 167 175 183 188 186 187 200 203 206 203 206 201 196 202 204 207 201 206 208 206 206
183 151 150 141 137 134 130 125 119 115 113 114 108 109 110 109 116 120 124 120 114 115 111 108 110 116 117 115 117 122 120 122 120 120 117 112 111 106 100 97 102 107 97 83 79 86 95 110 112 115 122 129 136 145 157 154 134 143 154 162 167 175 172 139 126 120 135 150 168 184 191 201 207 200 199 196 202 198 202 215 207 213 205 205 206
29 58 129 136 133 127 129 127 125 122 116 109 103 96 93 96 97 99 101 100 102 101 109 111 109 108 107 120 123 118 118 116 116 110 111 114 109 101 107 108 106 101 99 105 92 92 96 102 122 142 154 167 169 176 183 185 194 191 190 191 183 181 177 164 159 182 158 147 167 169 187 198 204 208 199 199 205 201 207 207 196 202 201 202 198
55 35 66 71 81 79 83 90 94 97 90 94 98 100 95 101 97 96 97 95 90 90 91 99 107 115 121 123 119 123 119 124 126 129 127 124 125 123 114 111 104 97 103 119 121 148 155 164 161 171 176 185 191 191 188 188 189 189 185 188 206 212 208 192 179 187 179 180 183 193 186 201 203 203 198 201 201 200 202 204 199 192 196 194 204
64 68 76 81 84 88 87 84 63 73 84 101 97 104 110 95 82 97 93 93 99 99 101 106 112 112 112 121 124 130 130 135 138 133 133 128 130 118 118 110 123 119 110 118 158 188 196 198 202 203 199 199 200 202 198 198 196 192 205 219 230 232 229 212 190 202 192 178 173 165 179 193 195 202 203 199 195 198 206 198 193 193 197 200 202